Regional Weather Roundup
Issued by NWS Binghamton, NY

Home | Current Version | Previous Version | Text Only | Print | Product List | Glossary On
Versions: 1 2 3 4 5 6 7 8 9 10 11 12 13 14 15 16 17 18 19 20 21 22 23 24 25 26 27
000
ASUS41 KBGM 280610
RWRBGM

REGIONAL WEATHER ROUNDUP
NATIONAL WEATHER SERVICE BINGHAMTON NY
200 AM EDT SAT MAY 28 2016

Note: "fair" indicates few or no clouds below 12,000 feet with no
significant weather and/or obstructions to visibility.

* = Station(s) that does not report precipitation, such as rain,
snow, etc, also no thunder or fog.

NYZ009-015>018-022>025-036-037-044>046-055>057-062-280700
...Central New York...

CITY           SKY/WX    TMP DP  RH WIND       PRES   REMARKS
Binghamton     PTCLDY    68  63  84 NW3       30.09R
Cortland       CLOUDY    63  63 100 CALM      30.08S
Dansville      PTCLDY    68  63  84 SE6       30.07S
Elmira         CLEAR     63  60  90 CALM      30.07R FOG
Ithaca         PTCLDY    65  63  93 E3        30.08R
Hamilton       PTCLDY    66  64  94 CALM      30.08S
Hornell        PTCLDY    63  61  94 SE3       30.13R
Monticello     PTCLDY    64  64 100 CALM      30.12S
Penn Yan       CLEAR     69  64  84 SW5       30.07R
Rome           CLOUDY    65  64  97 CALM      30.05S
Sidney         CLEAR     64  64 100 CALM      30.08S FOG
Syracuse       CLOUDY    67  66  97 SE5       30.02S
$$

PAZ038>040-043-044-047-048-072-280700
...Northeast Pennsylvania...

CITY           SKY/WX    TMP DP  RH WIND       PRES   REMARKS
Hazleton       CLOUDY    70  63  78 CALM      30.15S
Scranton       PTCLDY    73  64  73 S5        30.08S
$$
&&
KEY
WCI = Wind Chill Index
VSB = Visibility
HX  = Heat Index
$$




USA.gov is the U.S. government's official web portal to all federal, state and local government web resources and services.